, LA

(GMT )
South Marsh 268

Weather History for KSCF - February, 2014

Change the Weather History Date:

Sunday, February 23, 2014

  Actual Average Record
Temperature  
Mean Temperature 64 °F -  
Max Temperature 68 °F - - ()
Min Temperature 60 °F - - ()
Degree Days  
Heating Degree Days 1    
Growing Degree Days 14 (Base 50)    
Moisture  
Dew Point 65 °F    
Average Humidity 98    
Maximum Humidity 100    
Minimum Humidity 94    
Precipitation  
Precipitation 0.00 in - - ()
Sea Level Pressure  
Sea Level Pressure 29.98 in    
Wind  
Wind Speed 9 mph (SE)    
Max Wind Speed 16 mph    
Max Gust Speed 12 mph    
Visibility 1 miles    
Events Fog    
Averages and records for this station are not official NWS values.
T = Trace of Precipitation, MM = Missing Value Source: NWS Daily Summary

Daily Weather History Graph

Daily Weather History Graph

Search for Another Location

Airport or City:

Trip Planner

Search our weather history database for the weather conditions in past years. The results will help you decide how hot, cold, wet, or windy it might be!

Date:

Astronomy

Feb. 23, 2014 Rise Set
Actual Time 6:38 AM CST 6:03 PM CST
Civil Twilight 6:14 AM CST 6:27 PM CST
Nautical Twilight 5:47 AM CST 6:54 PM CST
Astronomical Twilight 5:19 AM CST 7:22 PM CST
Moon 1:24 AM CST (2/23) 12:19 PM CST (2/23)
Length of Visible Light 12h 12m
Length of Day
11h 24m
Last Quarter, 38% of the Moon is Illuminated
Feb 23
Last Quarter
Mar 1
New
Mar 8
First Quarter
Mar 16
Full
Mar 23
Last Quarter

Hourly Weather History & Observations

Time (CST) Temp. Dew Point Humidity Pressure Visibility Wind Dir Wind Speed Gust Speed Precip Events Conditions
12:15 AM 60.8 °F 59.0 °F 94% 29.96 in 7.0 mi ESE 15.0 mph - N/A   Unknown
12:35 AM 62.6 °F 60.8 °F 94% 29.96 in 7.0 mi ESE 15.0 mph - N/A   Unknown
12:55 AM 62.6 °F 60.8 °F 94% 29.96 in 7.0 mi ESE 16.1 mph - N/A   Unknown
1:15 AM 62.6 °F 60.8 °F 94% 29.95 in 6.0 mi SE 16.1 mph - N/A   Mist
1:35 AM 62.6 °F 60.8 °F 94% 29.95 in 6.0 mi ESE 12.7 mph - N/A   Mist
1:55 AM 62.6 °F 60.8 °F 94% 29.95 in 6.0 mi ESE 11.5 mph - N/A   Mist
2:15 AM 62.6 °F 60.8 °F 94% 29.95 in 5.0 mi ESE 10.4 mph - N/A   Mist
2:35 AM 62.6 °F 60.8 °F 94% 29.95 in 5.0 mi East 8.1 mph - N/A   Mist
2:55 AM 62.6 °F 62.6 °F 100% 29.94 in 4.0 mi East 9.2 mph - N/A   Mist
3:15 AM 62.6 °F 62.6 °F 100% 29.95 in 4.0 mi ENE 6.9 mph - N/A   Mist
3:35 AM 64.4 °F 64.4 °F 100% 29.95 in 3.0 mi ESE 5.8 mph - N/A   Overcast
3:55 AM 64.4 °F 64.4 °F 100% 29.95 in 0.2 mi ESE 8.1 mph - N/A Fog Fog
4:15 AM 64.4 °F 62.6 °F 94% 29.95 in 0.2 mi ESE 9.2 mph - N/A Fog Fog
4:35 AM 64.4 °F 62.6 °F 94% 29.95 in 0.2 mi ESE 9.2 mph - N/A Fog Fog
4:55 AM 64.4 °F 62.6 °F 94% 29.95 in 0.2 mi ESE 8.1 mph - N/A Fog Fog
5:15 AM 62.6 °F 62.6 °F 100% 29.95 in 0.2 mi ESE 8.1 mph - N/A Fog Fog
5:35 AM 62.6 °F 62.6 °F 100% 29.95 in 0.2 mi ESE 9.2 mph - N/A Fog Fog
5:55 AM 64.4 °F 62.6 °F 94% 29.95 in 0.2 mi SE 9.2 mph - N/A Fog Fog
6:15 AM 64.4 °F 62.6 °F 94% 29.96 in 0.2 mi SE 8.1 mph - N/A Fog Fog
6:35 AM 62.6 °F 62.6 °F 100% 29.96 in 0.2 mi SE 8.1 mph - N/A Fog Fog
6:55 AM 64.4 °F 64.4 °F 100% 29.97 in 0.2 mi SSE 11.5 mph - N/A Fog Fog
7:15 AM 64.4 °F 64.4 °F 100% 29.97 in 0.2 mi SSE 10.4 mph - N/A Fog Fog
7:35 AM 66.2 °F 64.4 °F 94% 29.98 in 0.2 mi SSE 11.5 mph - N/A Fog Fog
7:55 AM 66.2 °F 66.2 °F 100% 29.98 in 0.2 mi Variable 4.6 mph 11.5 mph N/A Fog Fog
8:15 AM 68.0 °F 68.0 °F 100% 29.99 in 0.2 mi Calm Calm - N/A Fog Fog
8:35 AM 68.0 °F 68.0 °F 100% 29.99 in 0.2 mi Calm Calm - N/A Fog Fog
8:55 AM 66.2 °F 66.2 °F 100% 29.99 in 0.2 mi Calm Calm - N/A Fog Fog
9:15 AM 68.0 °F 68.0 °F 100% 30.00 in 0.2 mi Calm Calm - N/A Fog Fog
9:35 AM 68.0 °F 68.0 °F 100% 30.01 in 0.2 mi Calm Calm - N/A Fog Fog
9:55 AM 68.0 °F 66.2 °F 94% 30.01 in 0.2 mi Calm Calm - N/A Fog Fog
10:15 AM 66.2 °F 66.2 °F 100% 30.01 in 0.2 mi Variable 3.5 mph - N/A Fog Fog
10:35 AM 68.0 °F 68.0 °F 100% 30.01 in 0.2 mi Variable 3.5 mph - N/A Fog Fog
10:55 AM 68.0 °F 66.2 °F 94% 30.01 in 0.2 mi Calm Calm - N/A Fog Fog
11:15 AM 68.0 °F 66.2 °F 94% 30.01 in 0.2 mi SW 4.6 mph - N/A Fog Fog
11:35 AM 66.2 °F 66.2 °F 100% 30.00 in 0.2 mi Calm Calm - N/A Fog Fog
11:55 AM 66.2 °F 66.2 °F 100% 29.99 in 0.2 mi WSW 11.5 mph - N/A Fog Fog
12:15 PM 68.0 °F 68.0 °F 100% 29.99 in 0.2 mi SW 9.2 mph - N/A Fog Fog
12:35 PM 68.0 °F 66.2 °F 94% 29.98 in 0.2 mi SW 11.5 mph - N/A Fog Fog
12:55 PM 68.0 °F 66.2 °F 94% 29.98 in 0.2 mi WSW 12.7 mph - N/A Fog Fog
1:15 PM 66.2 °F 66.2 °F 100% 29.98 in 0.2 mi WSW 12.7 mph - N/A Fog Fog
1:35 PM 68.0 °F 68.0 °F 100% 29.97 in 0.2 mi West 10.4 mph - N/A Fog Fog
1:55 PM 66.2 °F 66.2 °F 100% 29.97 in 0.2 mi WSW 8.1 mph - N/A Fog Fog
2:15 PM 68.0 °F 66.2 °F 94% 29.96 in 0.2 mi WSW 10.4 mph - N/A Fog Fog
2:35 PM 68.0 °F 66.2 °F 94% 29.96 in 2.5 mi West 9.2 mph - N/A   Overcast
2:55 PM 68.0 °F 66.2 °F 94% 29.95 in 0.2 mi West 9.2 mph - N/A Fog Fog
3:15 PM 68.0 °F 66.2 °F 94% 29.96 in 0.2 mi West 9.2 mph - N/A Fog Fog
3:35 PM 66.2 °F 66.2 °F 100% 29.95 in 0.2 mi West 8.1 mph - N/A Fog Fog
3:55 PM 68.0 °F 66.2 °F 94% 29.95 in 0.2 mi West 6.9 mph - N/A Fog Fog
4:15 PM 66.2 °F 64.4 °F 94% 29.95 in 0.2 mi NNE 6.9 mph - N/A Fog Fog
4:35 PM 64.4 °F 62.6 °F 94% 29.95 in 0.2 mi NE 5.8 mph - N/A Fog Fog
4:55 PM 64.4 °F 62.6 °F 94% 29.96 in 0.2 mi ENE 4.6 mph - N/A Fog Fog
5:15 PM 64.4 °F 64.4 °F 100% 29.96 in 0.2 mi SE 3.5 mph - N/A Fog Fog
5:35 PM 64.4 °F 64.4 °F 100% 29.96 in 0.2 mi NE 5.8 mph - N/A Fog Fog
5:55 PM 66.2 °F 64.4 °F 94% 29.96 in 0.2 mi NE 5.8 mph - N/A Fog Fog
6:15 PM 64.4 °F 64.4 °F 100% 29.96 in 0.2 mi East 6.9 mph - N/A Fog Fog
6:35 PM 64.4 °F 64.4 °F 100% 29.97 in 0.2 mi East 5.8 mph - N/A Fog Fog
6:55 PM 64.4 °F 62.6 °F 94% 29.97 in 0.2 mi ESE 5.8 mph - N/A Fog Fog
7:15 PM 64.4 °F 64.4 °F 100% 29.98 in 0.2 mi ESE 8.1 mph - N/A Fog Fog
7:35 PM 64.4 °F 64.4 °F 100% 29.98 in 0.2 mi ESE 8.1 mph - N/A Fog Fog
7:55 PM 62.6 °F 62.6 °F 100% 29.99 in 0.2 mi SSE 9.2 mph - N/A Fog Fog
8:15 PM 64.4 °F 64.4 °F 100% 29.99 in 0.2 mi SSE 8.1 mph - N/A Fog Fog
8:35 PM 66.2 °F 66.2 °F 100% 30.00 in 0.2 mi Calm Calm - N/A Fog Fog
8:55 PM 66.2 °F 66.2 °F 100% 30.01 in 0.2 mi Calm Calm - N/A Fog Fog
9:15 PM 66.2 °F 66.2 °F 100% 30.01 in 0.2 mi Calm Calm - N/A Fog Fog
9:35 PM 66.2 °F 66.2 °F 100% 30.02 in 0.2 mi WNW 3.5 mph - N/A Fog Fog
9:55 PM 64.4 °F 64.4 °F 100% 30.02 in 0.2 mi Calm Calm - N/A Fog Fog
10:15 PM 64.4 °F 64.4 °F 100% 30.03 in 0.2 mi South 3.5 mph - N/A Fog Fog
10:35 PM 64.4 °F 64.4 °F 100% 30.03 in 0.2 mi Calm Calm - N/A Fog Fog
10:55 PM 64.4 °F 64.4 °F 100% 30.03 in 0.2 mi Calm Calm - N/A Fog Fog
11:15 PM 64.4 °F 64.4 °F 100% 30.02 in 0.2 mi ESE 3.5 mph - N/A Fog Fog
11:35 PM 64.4 °F 64.4 °F 100% 30.02 in 0.2 mi ESE 3.5 mph - N/A Fog Fog
11:55 PM 66.2 °F 66.2 °F 100% 30.02 in 0.2 mi Calm Calm - N/A Fog Fog